Location: Pisa
(43.7170°N, 10.3830°E)
Time: 01:11:51
(UTC+02:00)

ISS - Pass Details

Date: 16 May 2021
Orbit: 417 x 422 km, 51.6° (Epoch: 17 June)

Event Time Altitude Azimuth Distance (km) Brightness Sun altitude
Rises 01:14:42 0° 293° (WNW) 2,369 0.4 -27.2°
Reaches altitude 10° 01:17:10 10° 311° (NW) 1,506 -0.5 -27.2°
Maximum altitude 01:19:48 21° 2° (N) 1,019 -1.1 -27.2°
Drops below altitude 10° 01:22:26 10° 53° (NE) 1,508 -0.5 -27.2°
Sets 01:24:54 0° 70° (ENE) 2,373 0.3 -27.1°
